INTELSAT 36 (IS-36) (41747 NORAD) Tracking and Keplerian Element Data

This shows tracking and keplerian element data for the satellite.

Feedback or suggestion? Click here.




ElementValue
Catalog41747
NameINTELSAT 36 (IS-36)
Epoch Orbit700
Epoch Day200.98275843
Epoch Year2018
RAAN36.5264
Inclination0.0086
Eccentricity0.0002171
Argument of Perigee329.6689
Mean Anonmoly353.7898
Mean Motion1.00271411
Decay Rate-4.2E-07
L11 41747U 16053A 18200.98275843 -.00000042 00000-0 00000-0 0 9992
L22 41747 0.0086 36.5264 0002171 329.6689 353.7898 1.00271411 7006

Live tracking and technical data element details for INTELSAT 36 (IS-36) (NORAD 41747). INTELSAT 36 (IS-36) can be tracked NOW for your location showing map with azimuth and elevation plus other details from your city location.

Track the satellite on the map from your city or location and see movement details for azimuth, elevation, latitude, longitude, range, height, and movement on the map or in text.







IsCatalogInMostPopularTable: catalog: 41747, numindb: 86
Update: records affected: 1



GetName: 41747 INTELSAT 36 (IS-36)

Hit Count: updated at: Sat, 21 Jul 2018 07:54:50 GMT